FW2617 Weather Reports


Display with metric or nautical units.
time (UTC)temp
F
wind
direction
speed
MPH
gust
MPH
rain 1hr
in
rain 24hr
in
rain mn
in
humidity
%
barometer
mb
20260904232704 96 166 5.0 11.0 0.00 0.00 0.00 43 1007.7
20260904231804 98 155 4.0 11.0 0.00 0.00 0.00 42 1007.6
20260904230904 98 152 5.0 13.0 0.00 0.00 0.00 42 1007.5
20260904230025 99 150 5.0 13.0 0.00 0.00 0.00 41 1007.6
20260904225404 99 157 5.0 11.0 0.00 0.00 0.00 39 1007.6
20260904224504 100 154 5.0 11.0 0.00 0.00 0.00 38 1007.6
20260904223604 100 157 5.0 14.0 0.00 0.00 0.00 38 1007.7
20260904222725 101 160 3.0 9.0 0.00 0.00 0.00 38 1007.7
20260904221804 100 154 3.0 10.0 0.00 0.00 0.00 39 1007.8
20260904220904 100 161 5.0 10.0 0.00 0.00 0.00 39 1007.9
20260904220004 100 154 5.0 10.0 0.00 0.00 0.00 38 1007.9
20260904215404 101 145 4.0 10.0 0.00 0.00 0.00 39 1007.9
20260904214504 101 172 5.0 10.0 0.00 0.00 0.00 41 1008.0
20260904213604 101 176 4.0 11.0 0.00 0.00 0.00 41 1008.0
20260904212725 100 165 5.0 15.0 0.00 0.00 0.00 40 1008.2
20260904211804 100 158 4.0 13.0 0.00 0.00 0.00 41 1008.4
20260904210904 101 148 5.0 13.0 0.00 0.00 0.00 40 1008.4
20260904210004 101 163 4.0 11.0 0.00 0.00 0.00 40 1008.6
20260904205404 101 188 4.0 9.0 0.00 0.00 0.00 39 1008.6
20260904204504 101 152 4.0 11.0 0.00 0.00 0.00 38 1008.7
20260904203604 100 162 4.0 10.0 0.00 0.00 0.00 40 1008.8
20260904202704 99 158 4.0 11.0 0.00 0.00 0.00 41 1009.0
20260904201804 100 158 3.0 9.0 0.00 0.00 0.00 40 1009.0
20260904200904 99 169 5.0 12.0 0.00 0.00 0.00 42 1009.1
20260904200025 99 188 5.0 11.0 0.00 0.00 0.00 43 1009.3
20260904195425 98 179 4.0 12.0 0.00 0.00 0.00 43 1009.4
20260904194504 97 191 5.0 11.0 0.00 0.00 0.00 45 1009.6
20260904193604 98 151 4.0 13.0 0.00 0.00 0.00 43 1009.8
20260904192704 97 166 5.0 12.0 0.00 0.00 0.00 44 1009.9
20260904191824 98 167 3.0 8.0 0.00 0.00 0.00 44 1009.8
20260904190904 99 167 4.0 9.0 0.00 0.00 0.00 45 1010.0
20260904190004 98 159 4.0 9.0 0.00 0.00 0.00 46 1010.1
20260904185404 98 171 3.0 9.0 0.00 0.00 0.00 47 1010.1
20260904184525 96 173 4.0 12.0 0.00 0.00 0.00 47 1010.2
20260904183604 97 170 4.0 11.0 0.00 0.00 0.00 48 1010.4
20260904182704 97 154 4.0 11.0 0.00 0.00 0.00 50 1010.5
20260904181804 95 164 3.0 10.0 0.00 0.00 0.00 51 1010.7
20260904180924 95 186 4.0 11.0 0.00 0.00 0.00 52 1010.8
20260904180004 95 171 3.0 8.0 0.00 0.00 0.00 53 1010.9
20260904175403 95 181 4.0 9.0 0.00 0.00 0.00 53 1011.0
20260904174503 94 175 4.0 11.0 0.00 0.00 0.00 54 1011.1
20260904173604 93 181 3.0 9.0 0.00 0.00 0.00 57 1011.2
20260904172704 93 194 5.0 9.0 0.00 0.00 0.00 57 1011.4
20260904171804 92 201 4.0 12.0 0.00 0.00 0.00 59 1011.5
20260904170904 92 175 4.0 13.0 0.00 0.00 0.00 61 1011.5
20260904170004 91 206 4.0 11.0 0.00 0.00 0.00 61 1011.6
20260904165425 91 185 4.0 12.0 0.00 0.00 0.00 61 1011.6
20260904164504 90 170 5.0 12.0 0.00 0.00 0.00 63 1011.7
20260904163604 90 195 4.0 10.0 0.00 0.00 0.00 64 1011.7
20260904162704 89 192 5.0 14.0 0.00 0.00 0.00 65 1011.8
20260904161804 88 199 4.0 9.0 0.00 0.00 0.00 67 1011.8
20260904160904 88 183 5.0 13.0 0.00 0.00 0.00 69 1011.7
20260904160004 87 183 5.0 10.0 0.00 0.00 0.00 70 1011.7
20260904155404 87 185 5.0 12.0 0.00 0.00 0.00 71 1011.7
20260904154504 86 192 6.0 12.0 0.00 0.00 0.00 73 1011.7
20260904153604 85 191 8.0 14.0 0.00 0.00 0.00 74 1011.6
20260904152725 85 193 6.0 14.0 0.00 0.00 0.00 73 1011.6
20260904151803 85 188 7.0 15.0 0.00 0.00 0.00 73 1011.7
20260904150904 85 188 7.0 14.0 0.00 0.00 0.00 75 1011.5
20260904150004 84 176 5.0 13.0 0.00 0.00 0.00 75 1011.6
20260904145404 84 179 6.0 13.0 0.00 0.00 0.00 77 1011.6
20260904144504 83 176 5.0 11.0 0.00 0.00 0.00 80 1011.6
20260904143604 83 177 4.0 10.0 0.00 0.00 0.00 82 1011.8
20260904142704 82 192 4.0 11.0 0.00 0.00 0.00 82 1011.7
20260904141804 82 166 3.0 7.0 0.00 0.00 0.00 84 1011.7
20260904140904 82 158 3.0 8.0 0.00 0.00 0.00 85 1011.6
20260904140004 82 155 3.0 9.0 0.00 0.00 0.00 86 1011.6
20260904135403 81 155 3.0 8.0 0.00 0.00 0.00 86 1011.6
20260904134504 80 158 3.0 8.0 0.00 0.00 0.00 88 1011.5
20260904133603 80 158 2.0 5.0 0.00 0.00 0.00 89 1011.4
20260904132704 79 152 2.0 9.0 0.00 0.00 0.00 90 1011.3
20260904131803 78 154 3.0 8.0 0.00 0.00 0.00 90 1011.3
20260904130904 78 151 3.0 8.0 0.00 0.00 0.00 90 1011.1
20260904130004 78 153 2.0 8.0 0.00 0.00 0.00 90 1011.1
20260904125404 78 161 1.0 5.0 0.00 0.00 0.00 90 1011.0
20260904124504 77 152 1.0 4.0 0.00 0.00 0.00 90 1010.9
20260904123604 77 148 1.0 6.0 0.00 0.00 0.00 90 1010.9
20260904122704 77 154 3.0 8.0 0.00 0.00 0.00 90 1010.8
20260904121804 77 149 3.0 6.0 0.00 0.00 0.00 90 1010.6
20260904120903 77 149 1.0 6.0 0.00 0.00 0.00 90 1010.7
20260904120004 77 142 1.0 5.0 0.00 0.00 0.00 89 1010.6
20260904115404 77 152 1.0 5.0 0.00 0.00 0.00 89 1010.7
20260904114504 77 157 1.0 5.0 0.00 0.00 0.00 89 1010.5
20260904113604 78 159 0.0 1.0 0.00 0.00 0.00 89 1010.5
20260904112704 78 160 1.0 4.0 0.00 0.00 0.00 89 1010.4
20260904111804 78 145 1.0 2.0 0.00 0.00 0.00 88 1010.3
20260904110903 78 155 1.0 5.0 0.00 0.00 0.00 88 1010.5
20260904110004 78 163 1.0 5.0 0.00 0.00 0.00 88 1010.2
20260904105404 78 164 1.0 5.0 0.00 0.00 0.00 88 1010.2
20260904104524 78 160 1.0 4.0 0.00 0.00 0.00 88 1010.1
20260904103625 78 161 2.0 6.0 0.00 0.00 0.00 88 1010.1
20260904102704 78 159 1.0 4.0 0.00 0.00 0.00 88 1010.1
20260904101804 78 170 2.0 6.0 0.00 0.00 0.00 88 1010.0
20260904100904 78 162 2.0 6.0 0.00 0.00 0.00 88 1010.0
20260904100004 78 156 2.0 6.0 0.00 0.00 0.00 88 1010.0
20260904095404 78 162 2.0 6.0 0.00 0.00 0.00 88 1010.1
20260904094504 78 163 2.0 6.0 0.00 0.00 0.00 88 1010.0
20260904093603 78 160 2.0 6.0 0.00 0.00 0.00 88 1009.9
20260904092704 78 159 2.0 5.0 0.00 0.00 0.00 88 1009.9
20260904091804 78 162 2.0 6.0 0.00 0.00 0.00 88 1010.0
20260904090903 78 164 1.0 5.0 0.00 0.00 0.00 88 1009.9
20260904090024 78 163 2.0 6.0 0.00 0.00 0.00 88 1009.8
20260904085404 78 160 2.0 5.0 0.00 0.00 0.00 87 1009.9
20260904084504 78 159 2.0 6.0 0.00 0.00 0.00 87 1009.8
20260904083604 78 162 3.0 7.0 0.00 0.00 0.00 87 1009.8
20260904082704 78 162 3.0 8.0 0.00 0.00 0.00 87 1009.9
20260904081804 78 161 2.0 6.0 0.00 0.00 0.00 87 1009.8
20260904080924 77 162 3.0 7.0 0.00 0.00 0.00 87 1009.8
20260904080004 77 162 3.0 7.0 0.00 0.00 0.00 87 1009.9
20260904075404 77 162 3.0 7.0 0.00 0.00 0.00 87 1009.9
20260904074525 77 157 2.0 6.0 0.00 0.00 0.00 87 1009.9
20260904073625 77 150 2.0 6.0 0.00 0.00 0.00 87 1010.1
20260904072703 77 158 2.0 5.0 0.00 0.00 0.00 86 1010.1
20260904071825 77 153 1.0 5.0 0.00 0.00 0.00 86 1010.2
20260904070904 77 133 1.0 3.0 0.00 0.00 0.00 86 1010.2
20260904070004 77 146 1.0 4.0 0.00 0.00 0.00 86 1010.3
20260904065403 77 146 1.0 3.0 0.00 0.00 0.00 86 1010.2
20260904064504 77 154 0.0 4.0 0.00 0.00 0.00 85 1010.3
20260904063604 77 155 1.0 4.0 0.00 0.00 0.00 85 1010.3
20260904062725 77 156 2.0 5.0 0.00 0.00 0.00 85 1010.2
20260904061804 77 162 3.0 7.0 0.00 0.00 0.00 85 1010.2
20260904060903 77 154 2.0 6.0 0.00 0.00 0.00 84 1010.2
20260904060003 77 155 2.0 4.0 0.00 0.00 0.00 84 1010.3
20260904055404 77 154 2.0 6.0 0.00 0.00 0.00 84 1010.3
20260904054504 77 160 3.0 7.0 0.00 0.00 0.00 83 1010.3
20260904053604 77 163 3.0 8.0 0.00 0.00 0.00 83 1010.2
20260904052704 78 162 3.0 6.0 0.00 0.00 0.00 82 1010.2
20260904051804 78 149 3.0 7.0 0.00 0.00 0.00 81 1010.3
20260904050904 78 153 3.0 7.0 0.00 0.00 0.00 80 1010.3
20260904050025 78 149 2.0 6.0 0.00 0.00 0.00 80 1010.3
20260904045403 78 145 2.0 5.0 0.00 0.00 0.00 79 1010.3
20260904044504 78 145 2.0 5.0 0.00 0.00 0.00 78 1010.2
20260904043603 78 147 1.0 5.0 0.00 0.00 0.00 78 1010.5
20260904042704 79 152 2.0 4.0 0.00 0.00 0.00 77 1010.3
20260904041824 79 149 2.0 6.0 0.00 0.00 0.00 77 1010.2
20260904040904 79 139 3.0 8.0 0.00 0.00 0.00 76 1010.3
20260904040004 79 141 3.0 8.0 0.00 0.00 0.00 76 1010.2
20260904035404 79 142 2.0 6.0 0.00 0.00 0.00 76 1010.3
20260904034504 80 142 3.0 8.0 0.00 0.00 0.00 76 1010.2
20260904033603 80 144 4.0 10.0 0.00 0.00 0.00 76 1010.2
20260904032724 80 146 3.0 9.0 0.00 0.00 0.00 75 1010.2
20260904031803 80 150 2.0 9.0 0.00 0.00 0.00 75 1010.1
20260904030925 80 145 4.0 9.0 0.00 0.00 0.00 74 1010.0
20260904030004 80 148 3.0 9.0 0.00 0.00 0.00 73 1009.9
20260904025404 80 148 3.0 7.0 0.00 0.00 0.00 73 1009.8
20260904024504 81 147 4.0 7.0 0.00 0.00 0.00 73 1009.7
20260904023604 81 148 5.0 10.0 0.00 0.00 0.00 72 1009.5
20260904022703 81 142 5.0 10.0 0.00 0.00 0.00 71 1009.4
20260904021804 81 142 5.0 9.0 0.00 0.00 0.00 70 1009.3
20260904020903 82 144 4.0 10.0 0.00 0.00 0.00 70 1009.2
20260904020025 82 144 4.0 11.0 0.00 0.00 0.00 69 1009.1
20260904015424 82 143 4.0 12.0 0.00 0.00 0.00 69 1008.9
20260904014503 82 141 4.0 12.0 0.00 0.00 0.00 69 1008.7
20260904013604 83 145 5.0 12.0 0.00 0.00 0.00 69 1008.6
20260904012725 83 147 5.0 11.0 0.00 0.00 0.00 68 1008.4
20260904011825 83 148 6.0 17.0 0.00 0.00 0.00 68 1008.3
20260904010924 83 144 5.0 12.0 0.00 0.00 0.00 68 1008.3
20260904010004 84 142 6.0 12.0 0.00 0.00 0.00 68 1008.3
20260904005404 84 143 5.0 15.0 0.00 0.00 0.00 67 1008.4
20260904004504 84 146 5.0 11.0 0.00 0.00 0.00 66 1008.4
20260904003604 85 154 6.0 12.0 0.00 0.00 0.00 64 1008.4
20260904002704 86 154 5.0 12.0 0.00 0.00 0.00 62 1008.4
20260904001825 86 150 5.0 13.0 0.00 0.00 0.00 61 1008.3
20260904000904 87 155 5.0 13.0 0.00 0.00 0.00 60 1008.2
20260904000004 88 150 5.0 14.0 0.00 0.00 0.00 61 1008.1
20260903235403 88 154 6.0 15.0 0.00 0.00 0.00 61 1008.0
20260903234503 89 142 6.0 15.0 0.00 0.00 0.00 61 1007.9
20260903233603 90 148 5.0 12.0 0.00 0.00 0.00 61 1007.8